Location: Andiroba
(19.8650°S, 43.9258°W)
Time: 00:06:28
(UTC+00:00)

USA 229 - Pass Details

Date: 15 June 2024
Orbit: 886 x 1325 km, 63.4° (Epoch: 21 July)

Event Time Altitude Azimuth Distance (km) Brightness Sun altitude
Exits shadow 07:33:53 34° 184° (S) 1,479 4.2 -26.0°
Maximum altitude 07:36:29 62° 117° (ESE) 1,014 3.7 -25.4°
Drops below altitude 10° 07:42:15 10° 37° (NE) 2,539 6.4 -24.1°
Sets 07:44:44 0° 33° (NNE) 3,477 7.2 -23.6°
